This is the latest recevied weather packets stored in our database for station/object SQ5OUZ-1. If no packets are shown the sender has not sent any weather packets the latest 10 day(s).
| Time | Temp. | Humidity | Pressure | Rain* | Wind** | Luminosity | Snow |
|---|---|---|---|---|---|---|---|
| 1777970496 | 32.78° C | 15% | 1011 hPa | - | - | - | - |
| 1777969593 | 32.78° C | 15% | 1011.2 hPa | - | - | - | - |
| 1777968690 | 32.78° C | 15% | 1011.3 hPa | - | - | - | - |
| 1777967787 | 32.78° C | 15% | 1011.3 hPa | - | - | - | - |
| 1777966882 | 32.78° C | 15% | 1011.4 hPa | - | - | - | - |
| 1777965979 | 32.22° C | 15% | 1011.5 hPa | - | - | - | - |
| 1777965065 | 32.78° C | 15% | 1011.5 hPa | - | - | - | - |
| 1777964161 | 31.67° C | 17% | 1011.6 hPa | - | - | - | - |
| 1777963258 | 31.11° C | 18% | 1011.7 hPa | - | - | - | - |
| 1777962355 | 29.44° C | 19% | 1011.8 hPa | - | - | - | - |
| 1777961452 | 29.44° C | 19% | 1011.9 hPa | - | - | - | - |
| 1777960549 | 28.33° C | 21% | 1011.8 hPa | - | - | - | - |
| 1777959645 | 26.67° C | 23% | 1011.9 hPa | - | - | - | - |
| 1777958742 | 25° C | 25% | 1011.9 hPa | - | - | - | - |
| 1777957839 | 23.33° C | 28% | 1012 hPa | - | - | - | - |
| 1777956935 | 21.67° C | 31% | 1012 hPa | - | - | - | - |
| 1777956032 | 20° C | 36% | 1011.9 hPa | - | - | - | - |
| 1777955129 | 18.33° C | 41% | 1012 hPa | - | - | - | - |
| 1777954226 | 15.56° C | 46% | 1012 hPa | - | - | - | - |
| 1777953323 | 14.44° C | 49% | 1012.1 hPa | - | - | - | - |
| 1777952419 | 13.89° C | 52% | 1012.1 hPa | - | - | - | - |
| 1777951516 | 13.89° C | 52% | 1012.1 hPa | - | - | - | - |
| 1777950612 | 13.89° C | 52% | 1012.1 hPa | - | - | - | - |
| 1777949709 | 14.44° C | 50% | 1012.2 hPa | - | - | - | - |
| 1777948806 | 13.89° C | 51% | 1012.3 hPa | - | - | - | - |
* Rain since midnight (hover to see other rain measurements)
** Current wind speed in m/s (hover to see current wind gust speed)